Tracking 33176 objects as of 12-Feb-2026
HD Live streaming from Space Station
objects crossing your sky now

ARIANE 5 R/B

Track ARIANE 5 R/B now!


NORAD ID: 39080
Int'l Code: 2013-006C
Perigee: 272.8 km
Apogee: 33,410.2 km
Inclination: 6.6 °
Period: 586.6 minutes
Semi major axis: 23212 km
RCS: 25.327 m2 (large)
Launch date: February 7, 2013
Source: France (FR)
Launch site: FRENCH GUIANA (FRGUI)

Note: This is a ROCKET BODY
Your satellite tracking list
Your tracking list is empty




NASA's NSSDC Master Catalog

Two Line Element Set (TLE):
1 39080U 13006C   26043.58965200  .00003651  00000-0  13724-2 0  9994
2 39080   6.6338  41.2851 7137832 251.1833  24.3990  2.45482194111822
Source of the keplerian elements: AFSPC